GW1475 Weather Reports


time (UTC)temp
C
wind
direction
speed
KPH
gust
KPH
rain 1hr
cm
rain 24hr
cm
rain mn
cm
humidity
%
barometer
mb
20260504141236 14 134 4.8 4.8 0.00 0.00 0.00 78 1009.8
20260504140653 13 93 4.8 4.8 0.00 0.00 0.00 79 1009.8
20260504130633 12 153 3.2 4.8 0.00 0.00 0.00 78 1009.1
20260504110627 5 182 0.0 0.0 0.00 0.00 0.00 99 1008.8
20260504081815 6 134 0.0 0.0 0.00 0.00 0.00 99 1009.8
20260504081216 6 133 0.0 0.0 0.00 0.00 0.00 99 1009.4
20260504080626 6 134 0.0 0.0 0.00 0.00 0.00 99 1009.4
20260504045417 8 140 0.0 0.0 0.00 0.00 0.00 89 1011.1
20260504044831 8 141 0.0 0.0 0.00 0.00 0.00 90 1010.8
20260504044221 8 140 0.0 0.0 0.00 0.00 0.00 90 1010.8
20260504043642 8 141 0.0 0.0 0.00 0.00 0.00 89 1010.8
20260504043048 8 140 0.0 0.0 0.00 0.00 0.00 88 1010.8
20260504042431 8 139 0.0 0.0 0.00 0.00 0.00 87 1010.8
20260504041228 8 141 0.0 0.0 0.00 0.00 0.00 86 1010.4
20260504040644 8 141 0.0 0.0 0.00 0.00 0.00 86 1010.8
20260504040030 8 139 0.0 0.0 0.00 0.00 0.00 85 1010.8
20260504035428 8 139 1.6 1.6 0.00 0.00 0.00 84 1010.8
20260504034215 8 141 0.0 1.6 0.00 0.00 0.00 85 1010.4
20260504033612 8 140 0.0 0.0 0.00 0.00 0.00 83 1010.8
20260504033036 8 141 0.0 0.0 0.00 0.00 0.00 84 1010.8
20260504031244 8 126 3.2 3.2 0.00 0.00 0.00 82 1010.4
20260504030018 8 180 0.0 0.0 0.00 0.00 0.00 85 1010.8
20260504025414 8 180 0.0 0.0 0.00 0.00 0.00 85 1010.8
20260504024824 8 179 1.6 1.6 0.00 0.00 0.00 84 1010.8
20260504024220 8 180 0.0 0.0 0.00 0.00 0.00 84 1010.8
20260504023633 8 181 1.6 1.6 0.00 0.00 0.00 83 1010.4
20260504023027 8 179 0.0 0.0 0.00 0.00 0.00 82 1010.4
20260504022437 8 180 0.0 0.0 0.00 0.00 0.00 82 1010.4
20260504021834 8 182 0.0 1.6 0.00 0.00 0.00 82 1010.8
20260504020620 9 167 1.6 1.6 0.00 0.00 0.00 81 1010.1
20260504020020 9 167 0.0 0.0 0.00 0.00 0.00 80 1009.8
20260504015443 9 167 0.0 0.0 0.00 0.00 0.00 80 1010.4
20260504014826 9 167 0.0 0.0 0.00 0.00 0.00 80 1010.1
20260504014244 9 167 0.0 0.0 0.00 0.00 0.00 80 1010.1
20260504013650 9 167 0.0 0.0 0.00 0.00 0.00 79 1009.8
20260504012412 9 167 0.0 0.0 0.00 0.00 0.00 80 1010.1
20260504011837 10 167 1.6 1.6 0.00 0.00 0.00 79 1009.8
20260504011214 10 167 0.0 0.0 0.00 0.00 0.00 78 1009.8
20260504010635 10 167 0.0 0.0 0.00 0.00 0.00 77 1009.4
20260504010049 10 167 0.0 0.0 0.00 0.00 0.00 76 1010.1
20260504005438 10 166 0.0 0.0 0.00 0.00 0.00 76 1010.1
20260504004247 10 166 0.0 0.0 0.00 0.00 0.00 73 1010.1
20260504003614 11 124 0.0 0.0 0.00 0.00 0.00 72 1010.1
20260504003040 11 120 0.0 0.0 0.00 0.00 0.00 71 1009.8
20260504002436 11 124 0.0 0.0 0.00 0.00 0.00 69 1009.8
20260504001818 11 145 1.6 1.6 0.00 0.00 0.00 67 1009.8
20260504001219 12 143 1.6 1.6 0.00 0.00 0.00 66 1009.8
20260504000654 12 122 0.0 1.6 0.00 0.00 0.00 63 1009.8
20260504000042 12 216 1.6 1.6 0.00 0.00 0.00 63 1009.8
20260503235412 13 166 0.0 0.0 0.00 0.00 0.00 62 1010.1
20260503234815 13 175 0.0 0.0 0.00 0.00 0.00 60 1009.8
20260503234236 13 168 0.0 0.0 0.00 0.00 0.00 57 1009.8
20260503233627 14 97 0.0 0.0 0.00 0.00 0.00 56 1009.4
20260503233035 15 154 0.0 0.0 0.00 0.00 0.00 53 1009.8
20260503232447 15 274 1.6 1.6 0.00 0.00 0.00 51 1010.1
20260503231818 16 185 0.0 1.6 0.00 0.00 0.00 47 1009.8
20260503231252 16 13 1.6 3.2 0.00 0.00 0.00 43 1010.1
20260503230636 16 104 4.8 6.4 0.00 0.00 0.00 39 1009.8
20260503230041 18 226 0.0 0.0 0.00 0.00 0.00 38 1010.1
20260503224223 17 267 1.6 1.6 0.00 0.00 0.00 37 1010.1
20260503223614 17 126 9.7 11.3 0.00 0.00 0.00 34 1010.4
20260503223014 17 75 1.6 3.2 0.00 0.00 0.00 35 1010.4
20260503222422 18 110 4.8 6.4 0.00 0.00 0.00 35 1010.4
20260503221820 17 250 1.6 1.6 0.00 0.00 0.00 37 1010.4
20260503221224 18 132 9.7 12.9 0.00 0.00 0.00 34 1010.1
20260503220654 17 271 3.2 4.8 0.00 0.00 0.00 35 1010.4
20260503220044 17 18 6.4 6.4 0.00 0.00 0.00 33 1010.4
20260503215439 17 62 3.2 4.8 0.00 0.00 0.00 37 1010.4
20260503214810 17 211 1.6 1.6 0.00 0.00 0.00 35 1010.4
20260503214224 17 150 8.0 9.7 0.00 0.00 0.00 35 1010.4
20260503213647 18 154 3.2 3.2 0.00 0.00 0.00 33 1010.8
20260503212440 17 217 1.6 3.2 0.00 0.00 0.00 33 1010.4
20260503211827 17 46 6.4 6.4 0.00 0.00 0.00 35 1010.8
20260503211227 17 30 4.8 6.4 0.00 0.00 0.00 32 1010.4
20260503210647 17 85 3.2 3.2 0.00 0.00 0.00 34 1010.8
20260503210017 17 71 8.0 12.9 0.00 0.00 0.00 34 1010.8
20260503205430 18 183 11.3 12.9 0.00 0.00 0.00 32 1010.8
20260503204242 17 70 1.6 1.6 0.00 0.00 0.00 33 1010.8
20260503203038 17 341 8.0 11.3 0.00 0.00 0.00 33 1011.1
20260503202422 17 75 1.6 3.2 0.00 0.00 0.00 33 1011.1
20260503201816 17 49 8.0 12.9 0.00 0.00 0.00 34 1011.1
20260503201234 17 105 9.7 11.3 0.00 0.00 0.00 34 1011.1
20260503200625 17 133 11.3 12.9 0.00 0.00 0.00 33 1011.5
20260503200026 16 117 8.0 9.7 0.00 0.00 0.00 34 1011.8
20260503195409 16 121 9.7 11.3 0.00 0.00 0.00 34 1011.8
20260503194821 16 128 6.4 6.4 0.00 0.00 0.00 35 1012.1
20260503194241 17 83 1.6 3.2 0.00 0.00 0.00 35 1011.8
20260503193621 17 203 4.8 4.8 0.00 0.00 0.00 33 1012.1
20260503193043 16 338 9.7 11.3 0.00 0.00 0.00 34 1012.1
20260503192436 16 128 6.4 9.7 0.00 0.00 0.00 34 1012.1
20260503191842 16 113 12.9 14.5 0.00 0.00 0.00 35 1012.5
20260503191249 17 163 9.7 11.3 0.00 0.00 0.00 36 1012.5
20260503190636 17 260 8.0 9.7 0.00 0.00 0.00 36 1012.8
20260503190052 16 41 3.2 4.8 0.00 0.00 0.00 36 1012.8
20260503185423 16 170 4.8 4.8 0.00 0.00 0.00 36 1012.8
20260503184846 16 222 4.8 4.8 0.00 0.00 0.00 38 1013.2
20260503184216 15 276 6.4 9.7 0.00 0.00 0.00 35 1013.2
20260503183031 15 22 6.4 6.4 0.00 0.00 0.00 36 1013.5
20260503182446 16 188 6.4 11.3 0.00 0.00 0.00 35 1013.5
20260503181853 16 334 6.4 6.4 0.00 0.00 0.00 34 1013.5
20260503181236 16 165 3.2 4.8 0.00 0.00 0.00 37 1013.8
20260503180651 16 355 4.8 4.8 0.00 0.00 0.00 38 1013.5
20260503180026 16 19 3.2 4.8 0.00 0.00 0.00 36 1013.5
20260503175417 15 155 4.8 4.8 0.00 0.00 0.00 36 1013.8
20260503174820 15 346 12.9 14.5 0.00 0.00 0.00 37 1014.2
20260503174213 15 13 8.0 11.3 0.00 0.00 0.00 37 1013.8
20260503173628 15 52 3.2 3.2 0.00 0.00 0.00 40 1013.8
20260503173035 14 23 4.8 4.8 0.00 0.00 0.00 39 1013.8
20260503172413 15 94 3.2 3.2 0.00 0.00 0.00 39 1014.2
20260503171814 14 352 1.6 1.6 0.00 0.00 0.00 38 1014.5
20260503171254 14 325 6.4 6.4 0.00 0.00 0.00 39 1014.5
20260503150630 12 49 1.6 1.6 0.00 0.00 0.00 43 1015.9